| time (UTC) | temp F | wind direction | speed MPH | gust MPH | rain 1hr in | rain 24hr in | rain mn in | humidity % | barometer mb |
| 20260503181529 | 47 | 352 | 14.0 | 22.0 | 0.00 | 0.30 | 0.00 | 67 | 1006.0 |
| 20260503181010 | 47 | 322 | 10.0 | 18.0 | 0.00 | 0.30 | 0.00 | 68 | 1006.1 |
| 20260503180512 | 47 | 331 | 8.0 | 16.0 | 0.00 | 0.30 | 0.00 | 70 | 1006.1 |
| 20260503180038 | 46 | 310 | 9.0 | 16.0 | 0.00 | 0.30 | 0.00 | 71 | 1006.1 |
| 20260503175509 | 46 | 333 | 6.0 | 18.0 | 0.00 | 0.30 | 0.00 | 73 | 1006.2 |
| 20260503175012 | 45 | 347 | 9.0 | 18.0 | 0.00 | 0.30 | 0.00 | 72 | 1006.2 |
| 20260503174531 | 45 | 325 | 11.0 | 18.0 | 0.00 | 0.30 | 0.00 | 75 | 1006.2 |
| 20260503174011 | 45 | 299 | 5.0 | 15.0 | 0.00 | 0.30 | 0.00 | 76 | 1006.2 |
| 20260503173512 | 44 | 351 | 8.0 | 15.0 | 0.00 | 0.30 | 0.00 | 79 | 1006.2 |
| 20260503173028 | 44 | 335 | 10.0 | 15.0 | 0.00 | 0.30 | 0.00 | 80 | 1006.2 |
| 20260503172511 | 44 | 352 | 5.0 | 12.0 | 0.00 | 0.30 | 0.00 | 83 | 1006.4 |
| 20260503172009 | 44 | 288 | 7.0 | 14.0 | 0.00 | 0.30 | 0.00 | 83 | 1006.4 |
| 20260503171538 | 43 | 348 | 8.0 | 14.0 | 0.00 | 0.30 | 0.00 | 82 | 1006.4 |
| 20260503171012 | 44 | 335 | 8.0 | 14.0 | 0.00 | 0.30 | 0.00 | 83 | 1006.4 |
| 20260503170512 | 43 | 317 | 3.0 | 16.0 | 0.00 | 0.30 | 0.00 | 84 | 1006.4 |
| 20260503150510 | 41 | 323 | 10.0 | 16.0 | 0.00 | 0.30 | 0.00 | 88 | 1006.7 |
| 20260503131013 | 40 | 14 | 12.0 | 20.0 | 0.00 | 0.32 | 0.00 | 92 | 1007.5 |
| 20260503130514 | 40 | 12 | 10.0 | 22.0 | 0.00 | 0.32 | 0.00 | 92 | 1007.5 |
| 20260503110512 | 39 | 355 | 9.0 | 15.0 | 0.00 | 0.35 | 0.00 | 97 | 1008.0 |
| 20260503081540 | 40 | 26 | 4.0 | 8.0 | 0.00 | 0.35 | 0.00 | 97 | 1008.9 |
| 20260503081014 | 41 | 0 | 1.0 | 10.0 | 0.00 | 0.35 | 0.00 | 97 | 1009.0 |
| 20260503080513 | 41 | 52 | 2.0 | 10.0 | 0.00 | 0.35 | 0.00 | 97 | 1008.9 |
| 20260503072514 | 41 | 343 | 2.0 | 9.0 | 0.00 | 0.35 | 0.00 | 98 | 1009.2 |
| 20260503072015 | 41 | 352 | 1.0 | 9.0 | 0.00 | 0.35 | 0.00 | 97 | 1009.4 |
| 20260503071530 | 41 | 13 | 4.0 | 9.0 | 0.00 | 0.35 | 0.00 | 97 | 1009.4 |
| 20260503071014 | 41 | 23 | 3.0 | 9.0 | 0.00 | 0.35 | 0.00 | 97 | 1009.2 |
| 20260503070514 | 41 | 19 | 3.0 | 9.0 | 0.00 | 0.35 | 0.00 | 97 | 1009.2 |
| 20260503055012 | 42 | 20 | 1.0 | 7.0 | 0.00 | 0.35 | 0.00 | 97 | 1009.9 |
| 20260503054538 | 42 | 26 | 2.0 | 7.0 | 0.00 | 0.35 | 0.00 | 98 | 1010.0 |
| 20260503054011 | 42 | 0 | 3.0 | 7.0 | 0.00 | 0.35 | 0.00 | 98 | 1010.2 |
| 20260503053514 | 42 | 66 | 3.0 | 7.0 | 0.00 | 0.35 | 0.00 | 97 | 1010.3 |
| 20260503053030 | 42 | 26 | 2.0 | 5.0 | 0.00 | 0.35 | 0.00 | 98 | 1010.3 |
| 20260503052512 | 42 | 46 | 3.0 | 5.0 | 0.00 | 0.35 | 0.00 | 98 | 1010.3 |
| 20260503052014 | 42 | 20 | 1.0 | 5.0 | 0.00 | 0.35 | 0.00 | 98 | 1010.5 |
| 20260503051532 | 42 | 330 | 1.0 | 5.0 | 0.00 | 0.35 | 0.00 | 98 | 1010.5 |
| 20260503051011 | 42 | 318 | 1.0 | 4.0 | 0.00 | 0.35 | 0.00 | 98 | 1010.6 |
| 20260503050513 | 42 | 0 | 0.0 | 4.0 | 0.00 | 0.35 | 0.00 | 98 | 1010.8 |
| 20260503050030 | 42 | 302 | 1.0 | 3.0 | 0.00 | 0.35 | 0.00 | 98 | 1011.0 |
| 20260503045515 | 42 | 0 | 0.0 | 2.0 | 0.00 | 0.35 | 0.00 | 97 | 1011.1 |
| 20260503045013 | 42 | 0 | 0.0 | 2.0 | 0.00 | 0.35 | 0.00 | 97 | 1011.2 |
| 20260503044532 | 42 | 0 | 0.0 | 1.0 | 0.00 | 0.35 | 0.00 | 98 | 1011.2 |
| 20260503044014 | 42 | 0 | 0.0 | 1.0 | 0.00 | 0.35 | 0.00 | 97 | 1011.3 |
| 20260503043512 | 42 | 0 | 0.0 | 3.0 | 0.00 | 0.35 | 0.00 | 97 | 1011.3 |
| 20260503043032 | 42 | 0 | 0.0 | 3.0 | 0.00 | 0.35 | 0.00 | 97 | 1011.4 |
| 20260503042514 | 42 | 318 | 1.0 | 4.0 | 0.00 | 0.35 | 0.00 | 97 | 1011.4 |
| 20260503042013 | 42 | 0 | 0.0 | 6.0 | 0.00 | 0.35 | 0.00 | 97 | 1011.5 |
| 20260503041528 | 42 | 287 | 1.0 | 6.0 | 0.00 | 0.35 | 0.00 | 97 | 1011.6 |
| 20260503041011 | 42 | 306 | 2.0 | 5.0 | 0.00 | 0.35 | 0.00 | 97 | 1011.4 |
| 20260503040514 | 42 | 342 | 2.0 | 5.0 | 0.00 | 0.35 | 0.00 | 97 | 1011.4 |
| 20260503040033 | 42 | 0 | 0.0 | 5.0 | 0.00 | 0.35 | 0.00 | 97 | 1011.6 |
| 20260503035514 | 42 | 0 | 0.0 | 5.0 | 0.00 | 0.35 | 0.35 | 97 | 1011.6 |
| 20260503035015 | 42 | 0 | 1.0 | 7.0 | 0.00 | 0.35 | 0.35 | 97 | 1011.5 |
| 20260503034530 | 42 | 9 | 3.0 | 10.0 | 0.00 | 0.35 | 0.35 | 97 | 1011.4 |
| 20260503034015 | 42 | 42 | 3.0 | 10.0 | 0.00 | 0.35 | 0.35 | 97 | 1011.2 |
| 20260503033514 | 42 | 34 | 1.0 | 12.0 | 0.00 | 0.35 | 0.35 | 97 | 1011.2 |
| 20260503033041 | 42 | 25 | 5.0 | 12.0 | 0.00 | 0.35 | 0.35 | 97 | 1011.2 |
| 20260503032515 | 42 | 32 | 4.0 | 10.0 | 0.00 | 0.35 | 0.35 | 97 | 1011.0 |
| 20260503032013 | 42 | 43 | 3.0 | 7.0 | 0.00 | 0.35 | 0.35 | 97 | 1011.3 |
| 20260503031529 | 42 | 32 | 1.0 | 5.0 | 0.00 | 0.35 | 0.35 | 97 | 1011.5 |
| 20260503031012 | 42 | 41 | 0.0 | 5.0 | 0.00 | 0.35 | 0.35 | 97 | 1011.6 |
| 20260503030515 | 42 | 0 | 1.0 | 5.0 | 0.00 | 0.35 | 0.35 | 97 | 1011.6 |
| 20260503030034 | 42 | 40 | 1.0 | 6.0 | 0.00 | 0.35 | 0.35 | 97 | 1011.5 |
| 20260503025514 | 42 | 0 | 2.0 | 7.0 | 0.00 | 0.35 | 0.35 | 97 | 1011.5 |
| 20260503025013 | 42 | 0 | 2.0 | 7.0 | 0.00 | 0.35 | 0.35 | 97 | 1011.5 |
| 20260503024532 | 42 | 75 | 2.0 | 10.0 | 0.00 | 0.35 | 0.35 | 97 | 1011.4 |
| 20260503024012 | 42 | 52 | 4.0 | 10.0 | 0.01 | 0.35 | 0.35 | 97 | 1011.4 |
| 20260503023511 | 42 | 64 | 4.0 | 10.0 | 0.01 | 0.35 | 0.35 | 97 | 1011.4 |
| 20260503023032 | 42 | 52 | 3.0 | 9.0 | 0.01 | 0.35 | 0.35 | 97 | 1011.5 |
| 20260503022513 | 42 | 50 | 3.0 | 9.0 | 0.01 | 0.35 | 0.35 | 97 | 1011.6 |
| 20260503022013 | 43 | 61 | 3.0 | 8.0 | 0.01 | 0.35 | 0.35 | 97 | 1011.8 |
| 20260503021530 | 43 | 63 | 2.0 | 9.0 | 0.01 | 0.35 | 0.35 | 97 | 1011.9 |
| 20260503021014 | 43 | 57 | 2.0 | 9.0 | 0.01 | 0.35 | 0.35 | 97 | 1011.9 |
| 20260503020514 | 43 | 70 | 3.0 | 9.0 | 0.01 | 0.35 | 0.35 | 97 | 1011.9 |
| 20260503020029 | 43 | 86 | 3.0 | 9.0 | 0.01 | 0.35 | 0.35 | 97 | 1012.0 |
| 20260503015514 | 43 | 79 | 2.0 | 7.0 | 0.02 | 0.35 | 0.35 | 97 | 1012.1 |
| 20260503015014 | 43 | 97 | 1.0 | 7.0 | 0.02 | 0.35 | 0.35 | 97 | 1012.3 |
| 20260503014541 | 43 | 63 | 2.0 | 7.0 | 0.02 | 0.35 | 0.35 | 97 | 1012.4 |
| 20260503014013 | 43 | 47 | 2.0 | 6.0 | 0.01 | 0.34 | 0.34 | 97 | 1012.4 |
| 20260503013512 | 43 | 38 | 2.0 | 7.0 | 0.01 | 0.34 | 0.34 | 97 | 1012.3 |
| 20260503013037 | 43 | 46 | 1.0 | 7.0 | 0.02 | 0.34 | 0.34 | 97 | 1012.4 |
| 20260503012513 | 43 | 355 | 2.0 | 6.0 | 0.02 | 0.34 | 0.34 | 97 | 1012.4 |
| 20260503012015 | 43 | 40 | 2.0 | 6.0 | 0.02 | 0.34 | 0.34 | 97 | 1012.4 |
| 20260503011532 | 43 | 30 | 2.0 | 8.0 | 0.02 | 0.34 | 0.34 | 97 | 1012.4 |
| 20260503011014 | 43 | 44 | 2.0 | 8.0 | 0.03 | 0.34 | 0.34 | 97 | 1012.4 |
| 20260503010512 | 43 | 65 | 2.0 | 6.0 | 0.03 | 0.34 | 0.34 | 97 | 1012.3 |
| 20260503010043 | 43 | 66 | 2.0 | 8.0 | 0.03 | 0.34 | 0.34 | 97 | 1012.4 |
| 20260503005512 | 43 | 51 | 1.0 | 8.0 | 0.02 | 0.33 | 0.33 | 97 | 1012.4 |
| 20260503005013 | 43 | 38 | 1.0 | 6.0 | 0.03 | 0.33 | 0.33 | 97 | 1012.4 |
| 20260503004533 | 43 | 61 | 1.0 | 9.0 | 0.03 | 0.33 | 0.33 | 97 | 1012.3 |
| 20260503004012 | 43 | 57 | 3.0 | 9.0 | 0.03 | 0.33 | 0.33 | 97 | 1012.3 |
| 20260503003515 | 43 | 50 | 2.0 | 5.0 | 0.04 | 0.33 | 0.33 | 97 | 1012.3 |
| 20260503003032 | 43 | 0 | 0.0 | 5.0 | 0.03 | 0.32 | 0.32 | 97 | 1012.3 |
| 20260503002512 | 43 | 0 | 1.0 | 6.0 | 0.03 | 0.32 | 0.32 | 97 | 1012.4 |
| 20260503002014 | 43 | 0 | 2.0 | 6.0 | 0.03 | 0.32 | 0.32 | 97 | 1012.3 |
| 20260503001532 | 43 | 35 | 2.0 | 6.0 | 0.03 | 0.32 | 0.32 | 97 | 1012.2 |
| 20260503001014 | 43 | 28 | 2.0 | 6.0 | 0.02 | 0.31 | 0.31 | 97 | 1012.2 |
| 20260503000517 | 43 | 41 | 3.0 | 5.0 | 0.02 | 0.31 | 0.31 | 97 | 1012.1 |
| 20260503000030 | 43 | 36 | 1.0 | 5.0 | 0.02 | 0.31 | 0.31 | 97 | 1012.1 |
| 20260502235514 | 43 | 0 | 2.0 | 7.0 | 0.01 | 0.30 | 0.30 | 96 | 1012.0 |
| 20260502235017 | 43 | 18 | 1.0 | 7.0 | 0.01 | 0.30 | 0.30 | 97 | 1012.1 |
| 20260502234529 | 43 | 0 | 0.0 | 5.0 | 0.01 | 0.30 | 0.30 | 97 | 1012.1 |
| 20260502234013 | 43 | 0 | 0.0 | 4.0 | 0.01 | 0.30 | 0.30 | 97 | 1012.1 |
| 20260502233512 | 43 | 55 | 1.0 | 6.0 | 0.00 | 0.29 | 0.29 | 97 | 1012.1 |
| 20260502233029 | 43 | 0 | 2.0 | 6.0 | 0.00 | 0.29 | 0.29 | 97 | 1012.0 |
| 20260502232514 | 43 | 0 | 1.0 | 4.0 | 0.00 | 0.29 | 0.29 | 97 | 1012.0 |
| 20260502232012 | 43 | 48 | 1.0 | 6.0 | 0.00 | 0.29 | 0.29 | 96 | 1012.0 |
| 20260502231531 | 43 | 0 | 2.0 | 6.0 | 0.01 | 0.29 | 0.29 | 96 | 1012.0 |
| 20260502231015 | 43 | 0 | 0.0 | 5.0 | 0.01 | 0.29 | 0.29 | 96 | 1011.9 |
| 20260502230515 | 44 | 59 | 0.0 | 6.0 | 0.01 | 0.29 | 0.29 | 96 | 1011.8 |
| 20260502230031 | 44 | 0 | 2.0 | 8.0 | 0.02 | 0.29 | 0.29 | 96 | 1011.7 |
| 20260502225513 | 44 | 71 | 1.0 | 8.0 | 0.02 | 0.29 | 0.29 | 96 | 1011.8 |
| 20260502225015 | 44 | 79 | 4.0 | 10.0 | 0.02 | 0.29 | 0.29 | 96 | 1011.7 |
| 20260502224531 | 44 | 76 | 5.0 | 10.0 | 0.03 | 0.29 | 0.29 | 96 | 1011.6 |
| 20260502224014 | 44 | 71 | 6.0 | 9.0 | 0.03 | 0.29 | 0.29 | 96 | 1011.6 |
| 20260502223512 | 44 | 92 | 5.0 | 9.0 | 0.03 | 0.29 | 0.29 | 96 | 1011.5 |
| 20260502223036 | 44 | 78 | 4.0 | 10.0 | 0.03 | 0.29 | 0.29 | 96 | 1011.5 |
| 20260502222514 | 44 | 70 | 5.0 | 10.0 | 0.03 | 0.29 | 0.29 | 96 | 1011.5 |
| 20260502222013 | 44 | 84 | 5.0 | 9.0 | 0.03 | 0.28 | 0.28 | 96 | 1011.6 |
| 20260502221529 | 44 | 90 | 3.0 | 8.0 | 0.04 | 0.28 | 0.28 | 96 | 1011.6 |
| 20260502221014 | 44 | 63 | 4.0 | 8.0 | 0.04 | 0.28 | 0.28 | 96 | 1011.7 |
| 20260502220513 | 44 | 55 | 4.0 | 8.0 | 0.05 | 0.28 | 0.28 | 96 | 1011.6 |
| 20260502220030 | 44 | 64 | 4.0 | 8.0 | 0.05 | 0.27 | 0.27 | 96 | 1011.7 |
| 20260502215514 | 44 | 64 | 3.0 | 9.0 | 0.05 | 0.27 | 0.27 | 96 | 1011.7 |
| 20260502215012 | 44 | 64 | 3.0 | 9.0 | 0.05 | 0.27 | 0.27 | 96 | 1011.7 |
| 20260502214530 | 44 | 74 | 4.0 | 9.0 | 0.05 | 0.26 | 0.26 | 96 | 1011.7 |
| 20260502214014 | 44 | 34 | 3.0 | 9.0 | 0.05 | 0.26 | 0.26 | 96 | 1011.9 |
| 20260502213512 | 44 | 42 | 4.0 | 9.0 | 0.06 | 0.26 | 0.26 | 96 | 1011.9 |
| 20260502213029 | 44 | 46 | 2.0 | 5.0 | 0.07 | 0.26 | 0.26 | 96 | 1011.9 |
| 20260502212513 | 44 | 36 | 3.0 | 9.0 | 0.06 | 0.25 | 0.25 | 96 | 1012.0 |
| 20260502212012 | 44 | 30 | 2.0 | 9.0 | 0.07 | 0.25 | 0.25 | 96 | 1011.9 |
| 20260502211541 | 44 | 65 | 3.0 | 6.0 | 0.07 | 0.24 | 0.24 | 96 | 1011.9 |
| 20260502211013 | 44 | 40 | 1.0 | 4.0 | 0.06 | 0.23 | 0.23 | 96 | 1012.1 |
| 20260502210516 | 44 | 39 | 2.0 | 4.0 | 0.07 | 0.23 | 0.23 | 96 | 1012.1 |
| 20260502210038 | 44 | 41 | 1.0 | 4.0 | 0.06 | 0.22 | 0.22 | 95 | 1012.2 |
| 20260502205511 | 44 | 44 | 1.0 | 6.0 | 0.06 | 0.22 | 0.22 | 95 | 1012.3 |
| 20260502205014 | 44 | 0 | 2.0 | 6.0 | 0.06 | 0.21 | 0.21 | 95 | 1012.3 |
| 20260502204531 | 45 | 103 | 1.0 | 8.0 | 0.07 | 0.21 | 0.21 | 96 | 1012.2 |
| 20260502204013 | 45 | 0 | 1.0 | 8.0 | 0.08 | 0.21 | 0.21 | 95 | 1012.2 |
| 20260502203513 | 45 | 72 | 3.0 | 8.0 | 0.08 | 0.20 | 0.20 | 96 | 1012.0 |
| 20260502203031 | 45 | 0 | 1.0 | 5.0 | 0.07 | 0.19 | 0.19 | 96 | 1012.1 |
| 20260502202513 | 45 | 61 | 1.0 | 5.0 | 0.07 | 0.19 | 0.19 | 95 | 1012.2 |
| 20260502202013 | 45 | 0 | 0.0 | 5.0 | 0.06 | 0.18 | 0.18 | 95 | 1012.1 |
| 20260502201533 | 45 | 63 | 1.0 | 5.0 | 0.06 | 0.17 | 0.17 | 95 | 1012.1 |
| 20260502201014 | 45 | 51 | 1.0 | 4.0 | 0.06 | 0.17 | 0.17 | 96 | 1012.1 |
| 20260502200514 | 45 | 0 | 0.0 | 2.0 | 0.05 | 0.16 | 0.16 | 96 | 1012.2 |
| 20260502200030 | 45 | 0 | 0.0 | 3.0 | 0.05 | 0.16 | 0.16 | 96 | 1012.1 |
| 20260502195514 | 45 | 0 | 0.0 | 4.0 | 0.04 | 0.15 | 0.15 | 95 | 1012.1 |
| 20260502195013 | 44 | 5 | 1.0 | 6.0 | 0.04 | 0.15 | 0.15 | 95 | 1012.2 |
| 20260502194532 | 44 | 338 | 1.0 | 6.0 | 0.03 | 0.14 | 0.14 | 95 | 1012.2 |
| 20260502194011 | 44 | 37 | 2.0 | 6.0 | 0.02 | 0.13 | 0.13 | 95 | 1012.2 |
| 20260502193526 | 44 | 14 | 1.0 | 9.0 | 0.02 | 0.12 | 0.12 | 95 | 1012.1 |
| 20260502193032 | 44 | 11 | 1.0 | 9.0 | 0.02 | 0.12 | 0.12 | 95 | 1012.0 |
| 20260502192513 | 45 | 31 | 1.0 | 9.0 | 0.02 | 0.12 | 0.12 | 95 | 1012.1 |
| 20260502192013 | 45 | 21 | 3.0 | 10.0 | 0.03 | 0.12 | 0.12 | 95 | 1012.1 |
| 20260502191530 | 45 | 0 | 4.0 | 10.0 | 0.02 | 0.11 | 0.11 | 95 | 1012.1 |
| 20260502191014 | 45 | 40 | 4.0 | 9.0 | 0.03 | 0.11 | 0.11 | 94 | 1012.1 |
| 20260502190514 | 45 | 26 | 1.0 | 4.0 | 0.04 | 0.11 | 0.11 | 95 | 1012.2 |
| 20260502190035 | 45 | 0 | 0.0 | 4.0 | 0.06 | 0.11 | 0.11 | 95 | 1012.3 |
| 20260502185510 | 45 | 63 | 0.0 | 4.0 | 0.06 | 0.11 | 0.11 | 95 | 1012.4 |
| 20260502185012 | 45 | 31 | 2.0 | 4.0 | 0.06 | 0.11 | 0.11 | 94 | 1012.4 |
| 20260502184547 | 45 | 0 | 1.0 | 4.0 | 0.06 | 0.11 | 0.11 | 94 | 1012.6 |
| 20260502184012 | 45 | 40 | 2.0 | 7.0 | 0.06 | 0.11 | 0.11 | 94 | 1012.7 |
| 20260502183515 | 45 | 62 | 0.0 | 7.0 | 0.05 | 0.10 | 0.10 | 94 | 1012.7 |
| 20260502183047 | 45 | 28 | 2.0 | 8.0 | 0.05 | 0.10 | 0.10 | 94 | 1012.7 |
| 20260502182514 | 45 | 22 | 2.0 | 8.0 | 0.05 | 0.10 | 0.10 | 94 | 1012.7 |
| 20260502182012 | 45 | 33 | 0.0 | 5.0 | 0.04 | 0.09 | 0.09 | 93 | 1012.7 |